Printer-friendly version

IAU Minor Planet Center

Minor Planet Center

MPEC 2004-X43 : 2004 XO14

The following Minor Planet Electronic Circular may be linked-to from your own Web pages, but must not otherwise be redistributed electronically.


Read MPEC 2004-X42 Read MPEC 2004-X44


M.P.E.C. 2004-X43                                Issued 2004 Dec. 11, 13:07 UT

     The Minor Planet Electronic Circulars contain information on unusual
         minor planets and routine data on comets.  They are published
   on behalf of Commission 20 of the International Astronomical Union by the
          Minor Planet Center, Smithsonian Astrophysical Observatory,
                          Cambridge, MA 02138, U.S.A.

                  Supported in part by the Brinson Foundation
             Prepared using the Tamkin Foundation Computer Network

                              MPC@CFA.HARVARD.EDU
          URL http://cfa-www.harvard.edu/iau/mpc.html  ISSN 1523-6714

                                   2004 XO14

Observations:
     K04X14O* C2004 12 10.43712 09 39 21.44 -06 05 16.7          17.2 R EX043703
     K04X14O  C2004 12 10.44515 09 39 21.70 -06 05 08.2          17.5 R EX043703
     K04X14O  C2004 12 10.45319 09 39 21.97 -06 04 58.7          17.3 R EX043703
     K04X14O  C2004 12 10.46127 09 39 22.23 -06 04 49.9          17.7 R EX043703
     K04X14O  C2004 12 10.49511 09 39 23.37 -06 04 13.3          17.9 R EX043699
     K04X14O  C2004 12 10.50729 09 39 23.82 -06 04 00.3                 EX043699
     K04X14O  C2004 12 10.51947 09 39 24.31 -06 03 47.3                 EX043699
     K04X14O  C2004 12 10.53168 09 39 24.62 -06 03 33.7                 EX043699
     K04X14O  C2004 12 10.54259 09 39 24.92 -06 03 20.9          17.3 R EX043703
     K04X14O  C2004 12 10.54713 09 39 25.06 -06 03 15.8          17.6 R EX043703
     K04X14O  C2004 12 11.06973 09 39 44.47 -05 53 38.1                 EX043246
     K04X14O  C2004 12 11.07053 09 39 44.49 -05 53 37.1                 EX043246
     K04X14O  C2004 12 11.07130 09 39 44.52 -05 53 36.1                 EX043246
     K04X14O  C2004 12 11.07223 09 39 44.52 -05 53 35.1                 EX043246
     K04X14O  C2004 12 11.07306 09 39 44.57 -05 53 34.2                 EX043246
     K04X14O  C2004 12 11.42656 09 39 56.90 -05 46 54.4          17.8 R EX043854
     K04X14O  C2004 12 11.43222 09 39 57.08 -05 46 48.3          17.7 R EX043854
     K04X14O  C2004 12 11.43791 09 39 57.26 -05 46 42.5          17.8 R EX043854

Observer details:
246 Klet Observatory-KLENOT.  Observers J. Ticha, M. Tichy, M. Kocer.
    Measurer M. Tichy.  1.06-m KLENOT Telescope + CCD.
699 Lowell Observatory-LONEOS.  Observer M. E. Van Ness.  0.59-m LONEOS
    Schmidt + CCD.
703 Catalina Sky Survey.  Observer E. J. Christensen.  Measurers E. C. Beshore,
    C. M. Casey, E. J. Christensen, G. J. Garradd, R. E. Hill, S. M. Larson,
    R. H. McNaught.  0.68-m Schmidt + CCD.
854 Sabino Canyon Observatory, Tucson.  Observer J. E. McGaha.  0.36-m f/10.0
    Schmidt-Cassegrain + CCD.

Orbital elements:
2004 XO14
Epoch 2004 Dec. 1.0 TT = JDT 2453340.5                  MPC
M  10.85752              (2000.0)            P               Q
n   0.18504841     Peri.  276.24265     +0.61158819     -0.72633674
a   3.0498547      Node   130.95955     +0.78343770     +0.61129153
e   0.6173810      Incl.   24.54291     -0.11038684     +0.31425723
P   5.33           H   16.1           G   0.15
From 18 observations 2004 Dec. 10-11.

Ephemeris:
2004 XO14                a,e,i = 3.05, 0.62, 25                  q = 1.1669
Date    TT    R. A. (2000) Decl.     Delta      r     Elong.  Phase     V
2004 12 11    09 39.70   -05 54.8    0.771    1.433   108.8    40.6    17.9
2004 12 21    09 43.11   -02 22.7    0.750    1.502   119.4    34.8    17.8
2004 12 31    09 41.50   +02 01.8    0.738    1.573   131.6    27.8    17.7
2005 01 10    09 35.18   +07 09.3    0.740    1.648   145.4    19.8    17.5
2005 01 20    09 25.26   +12 35.1    0.765    1.723   160.1    11.2    17.4
2005 01 30    09 13.69   +17 43.5    0.817    1.800   174.4     3.0    17.2
2005 02 09    09 02.60   +22 04.2    0.898    1.877   170.1     5.2    17.7
2005 02 19    08 53.87   +25 22.9    1.005    1.955   157.2    11.3    18.3
2005 03 01    08 48.59   +27 41.3    1.136    2.032   145.4    16.1    18.8
2005 03 11    08 46.96   +29 09.1    1.287    2.108   134.8    19.5    19.3
2005 03 21    08 48.76   +29 57.5    1.453    2.184   125.2    21.9    19.7
2005 03 31    08 53.47   +30 16.4    1.630    2.259   116.4    23.3    20.0
2005 04 10    09 00.50   +30 13.1    1.816    2.333   108.2    24.1    20.4
2005 04 20    09 09.35   +29 52.8    2.009    2.406   100.6    24.2    20.7
2005 04 30    09 19.57   +29 19.6    2.204    2.478    93.4    23.9    20.9
2005 05 10    09 30.79   +28 36.3    2.402    2.549    86.5    23.3    21.1
2005 05 20    09 42.74   +27 44.8    2.598    2.618    79.9    22.4    21.3
2005 05 30    09 55.20   +26 47.1    2.792    2.686    73.5    21.2    21.5
2005 06 09    10 08.00   +25 44.2    2.982    2.754    67.3    19.9    21.7
2005 06 19    10 21.02   +24 37.5    3.165    2.819    61.2    18.4    21.8

Timothy B. Spahr             (C) Copyright 2004 MPC           M.P.E.C. 2004-X43

Read MPEC 2004-X42 Read MPEC 2004-X44


Our Web policy. Index to the CBAT/MPC/ICQ pages.


Valid HTML 4.01!